[Iaude] MPEC V97: 2023 VX2 [a=1.63,e=0.37,i=3.5,H=25.5]

mpec at marsden.cfa.harvard.edu mpec at marsden.cfa.harvard.edu
Tue Nov 7 09:21:58 EST 2023


M.P.E.C. 2023-V97                              Issued 2023 November 7, 14:20 UT

     The Minor Planet Electronic Circulars contain information on unusual
         minor planets, routine data on comets and natural satellites,
         and occasional editorial announcements.  They are published
    on behalf of Division F of the International Astronomical Union by the
          Minor Planet Center, Smithsonian Astrophysical Observatory,
                          Cambridge, MA 02138, U.S.A.
			  
             Prepared using the Tamkin Foundation Computer Network

                              MPC at CFA.HARVARD.EDU
            URL https://www.minorplanetcenter.net/    ISSN 1523-6714

                                    2023 VX2                                    


Observations:
     K23V02X* C2023 11 05.32099201 31 20.172+03 48 23.74         22.06wXEV097F51
     K23V02X  C2023 11 05.33218501 31 21.088+03 48 01.76         22.06wXEV097F51
     K23V02X  C2023 11 05.34337601 31 22.015+03 47 39.66         22.00wXEV097F51
     K23V02X KC2023 11 05.60906 01 31 53.19 +03 38 24.1          21.6 GVEV097N87
     K23V02X KC2023 11 05.62425 01 31 54.64 +03 37 54.3          21.2 GVEV097N87
     K23V02X KC2023 11 05.63741 01 31 55.80 +03 37 28.0          20.9 GVEV097N87
     K23V02X KC2023 11 07.13604901 34 57.70 +02 46 32.7          21.1 GXEV097858
     K23V02X KC2023 11 07.14931001 34 59.12 +02 46 05.4          21.4 GXEV097858
     K23V02X KC2023 11 07.16221301 35 00.812+02 45 41.40         22.06GVEV097I52
     K23V02X KC2023 11 07.16486701 35 01.086+02 45 36.00         21.93GVEV097I52
     K23V02X KC2023 11 07.16750201 35 01.367+02 45 30.46         21.68GVEV097I52
     K23V02X KC2023 11 07.16880301 35 01.09 +02 45 24.2          21.2 GXEV097858
     K23V02X KC2023 11 07.17013301 35 01.669+02 45 25.20         21.55GVEV097I52

Observer details:
858 Tebbutt Observatory, Edgewood.  Observer F. B. Zoltowski.  0.51-m f/8.1
    Schmidt-Cassegrain + CCD.
F51 Pan-STARRS 1, Haleakala.  Observers J. Bulger, T. Lowe, P. Minguez, A.
    Schultz, I. Smith.  Measurers K. Chambers, T. de Boer, J. Fairlamb, H.
    Gao, M. Huber, C.-C. Lin, E. Magnier, Y. Ramanjooloo, R. Wainscoat, R.
    Weryk.  1.8-m Ritchey-Chretien + CCD.
I52 Steward Observatory, Mt. Lemmon Station.  Observer H. Groeller.  Measurers
    E. C. Beshore, D. Fay, J. B. Fazekas, D. C. Fuls, A. R. Gibbs, A. D.
    Grauer, H. Groeller, J. K. Hogan, R. A. Kowalski, S. M. Larson, G. J.
    Leonard, D. Rankin, R. L. Seaman, F. C. Shelly, K. W. Wierzchos.  1.0-m
    prime focus + CCD.
N87 Nanshan Station, Xinjiang Observatory.  Observers M. Zhang, G.-Y. Sun, X.
    Gao, A. Iskandar, G.-J. Feng.  Measurers X. Liao, M. Zhang, L.-M. Tang,
    Z.-S. Yang, Z.-Y. Chen, W.-J. Zhou.  1.0-m f/2.2 reflector + CCD.

Orbital elements:
2023 VX2                                                 Earth MOID = 0.0630 AU
Epoch 2023 Sept. 13.0 TT = JDT 2460200.5                MPC                     
M 317.38001              (2000.0)            P               Q                  
n   0.47423126     Peri.  227.52272     +0.19462320     -0.98037435             
a   1.6285806      Node   211.29557     +0.91675813     +0.19320293             
e   0.3654434      Incl.    3.46903     +0.34882136     +0.03922708             
P   2.08           H   25.50          G   0.15           U   9                  
Residuals in seconds of arc
231105 F51  0.1+  0.0     231105 N87  0.5-  0.1-    231107 I52  0.1+  0.0
231105 F51  0.1-  0.0     231107 858  0.7-  0.2-    231107 858  0.2-  0.4-
231105 F51  0.0   0.0     231107 858  0.0   0.1+    231107 I52  0.6+  0.2+
231105 N87  0.1-  0.3-    231107 I52  0.1-  0.1-
231105 N87  0.4+  0.0     231107 I52  0.1-  0.0

Ephemeris:
2023 VX2                 a,e,i = 1.63, 0.37, 3                   q = 1.0334
Date    TT    R. A. (2000) Decl.     Delta      r    Elong.  Phase     V
2023 10 08    01 08 45.4 +13 07 24   0.2160  1.2134   171.4     7.1    23.1
...
2023 10 23    01 15 18.1 +09 37 26   0.1529  1.1467   171.9     7.1    22.2
...
2023 10 31    01 23 00.2 +06 28 55   0.1268  1.1156   164.5    13.8    22.0
...
2023 11 06    01 32 36.4 +03 26 13   0.1101  1.0949   158.9    19.0    21.9
2023 11 07    01 34 37.9 +02 52 03   0.1076  1.0917   158.0    19.8    21.8
2023 11 08    01 36 47.9 +02 16 47   0.1051  1.0886   157.1    20.7    21.8
...
2023 11 14    01 53 13.6 -01 37 40   0.09165 1.0714   152.0    25.7    21.6
...
2023 11 22    02 26 51.9 -07 45 19   0.07761 1.0530   145.9    31.7    21.4
...
2023 12 07    04 14 26.0 -19 14 01   0.06572 1.0345   137.3    40.3    21.3

A. U. Tomatic                (C) Copyright 2023 MPC           M.P.E.C. 2023-V97




More information about the Iaude mailing list